Showing default

CYGFM01, 41887

Orbit data source: Space-Track

CYGFM01, 41887 is an American payload satellite in LEO that was launched on Thu, 15 Dec 2016 UTC via a PEGASUS XL launch vehicle from the Pegasus Launch, Eastern Range Air Space (ERAS). Payload-class satellites include a variety of spacecraft equipped with specific instruments for various scientific and technological missions. These include communications satellites like Starlink; space stations such as the ISS; scientific satellites like the Hubble; Earth observation satellites from companies like Planet Labs, Umbra, and HawkEye 360; GPS; miniature CubeSats for education and research; and military/defense satellites.

Loading next visibility...
Identifier
41887, 2016-078D
Orbit
LEO
Country
Flag of USUS
Related business
Manufacturer
SST-US
Mission
Extended mission Civil Earth Obs Sci
Bus & Motor
CYGNSS, Unknown motor
Mass
29 kg wet, 29 kg dry
Launch date (UTC)
2016-12-15 (9 years ago)
Launch vehicle
PEGASUS XL
Launch site
Pegasus Launch, Eastern Range Air Space (ERAS)
Object type
Payload
Rocket body
Debris
Shape & HBR
Half Hex Cyl + 2 Pan, 2.5 m
Radar Cross Section
0.450 m², Medium (>0.1 m² and < 1m²)

Expand to show TLE details & history
Last TLE update: 10 hours ago

TLE from 10 hours ago
0 CYGFM01
1 41887U 16078D   26035.46578604  .00024170  00000-0  40457-3 0  9993
2 41887  34.9421  57.4831 0007759 306.7767  53.2243 15.50860869508049
Epoch: 2026-02-04T11:10Z
TLE epoch observation values (Epoch: 2026-02-04T11:10:43.913Z)
Latitude
-0.00002°
Longitude
115.16813°
Altitude
409.947 km
Speed
7.669 km/s
True Right ascension
03h 49m 55s
True Declination
0° 00' 00"
Sunlit
Object was in daylight at epoch
Visualization orbit readout
Latitude
Unknown
Longitude
Unknown
Altitude
Unknown
Speed
Unknown
Apparent Right ascension
Unknown
Apparent Declination
Unknown
Sunlit
N/A
Visualization observer readout
Local Sidereal Time
23:26:09
Azimuth
Unknown
Elevation
Unknown
Doppler factor
Unknown
Orbital elements
Apogee altitude
422.783 km
Perigee altitude
412.237 km
Semi-major axis
6,795.647 km
Eccentricity
0.00078
Inclination
34.9421°
RAAN
57.4831°
Arg. of periapsis
306.7767°
True anomaly
53.29556°
Mean anomaly
53.2243°
Eccentric anomaly
53.25992°
Mean motion
3.87433 °/min
Orbital period
92.92 mins
BSTAR
0.00040457
Loading maneuver chart data...
Computing Atmospheric mass density...
Loading historical data...
Loading historical data...
Loading historical data...
Loading historical data...
Loading historical data...
Loading historical data...
Loading historical data...

Documentation

Showing up to 5 results
|